Flag for Germany Weather past 2 weeks in Schwerte, North Rhine-Westphalia, Germany

Now
52 °F

Partly sunny.


Feels Like: 49 °F
Forecast: 48 / 61 °F
Wind: 8 mph from South

Location: Dortmund / Wickede

Current Time: Oct 26, 2014 at 9:33:46 AM

Latest Report: Oct 26, 2014 at 9:20 AM


Visibility: N/A

Pressure: 30.27 "Hg

Humidity: 82%

Dew point: 46 °F

Location of SchwerteLocation

Historic Weather in Schwerte — Graph

°F

Schwerte temperature yesterday

Maximum temperature yesterday: 55 °F (at 12:50 PM)
Minimum temperature yesterday: 50 °F (at 5:50 AM)
Average temperature yesterday: 53 °F

Past Weeks' High & Low Weather Summary

 TemperatureHumidityPressure
High73 °F (Oct 19, 2:20 PM)94% (Oct 11, 9:20 AM)30.27 "Hg (Oct 11, 9:20 AM)
Low45 °F (Oct 22, 5:20 AM)49% (Oct 14, 4:20 PM)29.47 "Hg (Oct 21, 4:20 PM)
Average56 °F76%29.92 "Hg
* Reported Oct 11 9:20 AM — Oct 26 8:20 AM, Schwerte, Weather by CustomWeather, © 2014

Note: Actual official high and low records may vary slightly from our data, if they occured in-between our weather recording intervals... More about our weather records

Advertising

Schwerte weather history for previous 24 hours

 ConditionsComfort  
Time TempWeatherWind HumidityBarometerVisibility
8:20 AM
Oct 26
52 °FPartly sunny.9 mph82%30.27 "HgN/A
7:50 AM52 °FPartly sunny.10 mph82%30.27 "HgN/A
7:20 AM50 °FPartly sunny.10 mph88%30.24 "HgN/A
6:50 AM50 °FOvercast.9 mph82%30.24 "HgN/A
6:20 AM50 °FClear.10 mph82%30.24 "Hg10 mi
5:50 AM50 °FPassing clouds.9 mph82%30.24 "HgN/A
5:20 AM50 °FPassing clouds.10 mph82%30.24 "HgN/A
10:50 PM
Oct 25
54 °FOvercast.8 mph88%30.18 "HgN/A
10:20 PM54 °FLight rain. Overcast.8 mph88%30.18 "Hg6 mi
9:50 PM54 °FLight rain. Passing clouds.7 mph94%30.15 "HgN/A
9:20 PM54 °FLight rain. Partly cloudy.7 mph94%30.15 "Hg5 mi
8:50 PM54 °FLight rain. Passing clouds.7 mph94%30.15 "Hg5 mi
8:20 PM54 °FLight rain. Partly cloudy.7 mph94%30.15 "Hg4 mi
7:50 PM54 °FSprinkles. Passing clouds.7 mph88%30.15 "Hg3 mi
7:20 PM54 °FPassing clouds.7 mph88%30.12 "Hg6 mi
6:50 PM54 °FBroken clouds.6 mph88%30.12 "Hg6 mi
6:20 PM54 °FPartly sunny.5 mph88%30.12 "HgN/A
5:50 PM55 °FPartly sunny.7 mph82%30.12 "Hg5 mi
5:20 PM55 °FPartly sunny.8 mph82%30.12 "HgN/A
4:50 PM55 °FPartly sunny.9 mph82%30.12 "HgN/A
4:20 PM55 °FSunny.10 mph82%30.12 "Hg10 mi
3:50 PM55 °FPartly sunny.12 mph82%30.12 "HgN/A
3:20 PM55 °FPartly sunny.8 mph82%30.09 "HgN/A
2:50 PM55 °FPartly sunny.9 mph82%30.09 "HgN/A
2:20 PM55 °FPartly sunny.9 mph82%30.09 "HgN/A
1:50 PM55 °FPartly sunny.9 mph82%30.09 "HgN/A
1:20 PM55 °FPartly sunny.9 mph82%30.09 "HgN/A
12:50 PM55 °FPartly sunny.7 mph82%30.09 "HgN/A
12:20 PM54 °FOvercast.7 mph88%30.09 "HgN/A
11:50 AM54 °FOvercast.7 mph82%30.09 "HgN/A
11:20 AM54 °FPartly sunny.8 mph82%30.09 "HgN/A
10:50 AM52 °FPartly sunny.8 mph88%30.09 "HgN/A
10:20 AM52 °FPartly sunny.10 mph88%30.07 "HgN/A
9:50 AM52 °FDrizzle. Partly sunny.10 mph88%30.07 "HgN/A
9:20 AM52 °FDrizzle. Partly sunny.9 mph82%30.07 "HgN/A
Weather by CustomWeather, © 2014

See weather overviewHow to use our weather pages